Location: Aulnoy
(48.8410°N, 3.0967°E)
Time: 23:28:44
(UTC+00:00)

Envisat - Pass Details

Date: 03 March 2024
Orbit: 762 x 764 km, 98.3° (Epoch: 12 April)

Event Time Altitude Azimuth Distance (km) Brightness Sun altitude
Rises 02:25:44 0° 22° (NNE) 3,241 7.0 -37.8°
Reaches altitude 10° 02:28:21 10° 34° (NE) 2,310 6.2 -37.5°
Enters shadow 02:31:23 25° 66° (ENE) 1,497 4.9 -37.1°
